GW1838 Weather Reports


Display with metric or nautical units.
time (UTC)temp
F
wind
direction
speed
MPH
gust
MPH
rain 1hr
in
rain 24hr
in
rain mn
in
humidity
%
barometer
mb
20260831094805 72 12 5.0 9.0 0.00 0.54 0.54 90 1017.4
20260831094305 72 25 5.0 10.0 0.00 0.54 0.54 90 1017.6
20260831093805 72 30 6.0 12.0 0.00 0.54 0.54 90 1017.6
20260831093305 72 22 8.0 12.0 0.00 0.54 0.54 90 1017.5
20260831091806 72 32 6.0 7.0 0.01 0.54 0.54 90 1017.2
20260831091305 72 10 3.0 10.0 0.01 0.54 0.54 90 1017.3
20260831085805 72 348 6.0 7.0 0.01 0.54 0.54 91 1017.4
20260831085306 72 350 5.0 7.0 0.01 0.54 0.54 91 1017.5
20260831084306 72 319 1.0 5.0 0.01 0.54 0.54 91 1017.3
20260831082805 72 294 1.0 2.0 0.00 0.53 0.53 91 1017.4
20260831081805 72 294 2.0 3.0 0.00 0.53 0.53 91 1017.4
20260831075805 72 291 1.0 3.0 0.00 0.53 0.53 91 1017.3
20260831075306 72 289 1.0 3.0 0.00 0.53 0.53 91 1017.5
20260831074805 72 289 1.0 2.0 0.00 0.53 0.53 91 1017.4
20260831072805 72 289 1.0 3.0 0.00 0.53 0.53 91 1017.6
20260831071805 72 296 0.0 0.0 0.00 0.53 0.53 91 1017.8
20260831071307 72 296 0.0 0.0 0.00 0.53 0.53 91 1017.7
20260831070804 72 296 0.0 0.0 0.00 0.53 0.53 91 1017.8
20260831070305 71 292 0.0 2.0 0.00 0.53 0.53 91 1017.7
20260831063805 71 350 0.0 1.0 0.12 0.53 0.53 91 1017.6
20260831062805 71 350 1.0 2.0 0.15 0.53 0.53 91 1017.5
20260831060305 71 5 0.0 0.0 0.16 0.53 0.53 91 1017.9
20260831055306 71 5 0.0 3.0 0.16 0.53 0.53 90 1018.0
20260831054805 71 353 2.0 5.0 0.15 0.52 0.52 90 1018.1
20260831054305 72 270 3.0 10.0 0.19 0.49 0.49 90 1018.4
20260831053305 72 272 4.0 7.0 0.32 0.38 0.38 90 1018.5
20260831052805 72 278 2.0 6.0 0.38 0.38 0.38 90 1018.3
20260831052307 72 293 2.0 7.0 0.38 0.38 0.38 90 1018.2
20260831051306 72 334 5.0 12.0 0.38 0.38 0.38 90 1018.1
20260831050805 72 348 9.0 12.0 0.38 0.38 0.38 90 1018.1
20260831050305 72 15 7.0 12.0 0.37 0.37 0.37 90 1017.9
20260831045805 71 17 9.0 13.0 0.37 0.37 0.37 90 1018.0
20260831044805 72 28 12.0 18.0 0.37 0.37 0.37 89 1018.2
20260831044305 72 4 17.0 26.0 0.30 0.30 0.30 89 1018.3
20260831043805 72 348 26.0 33.0 0.20 0.20 0.20 88 1018.6
20260831042307 77 350 17.0 28.0 0.00 0.00 0.00 85 1018.6
20260831041805 77 258 5.0 12.0 0.00 0.00 0.00 86 1017.8
20260831035307 78 250 5.0 12.0 0.00 0.00 0.00 87 1017.4
20260831034804 78 244 5.0 10.0 0.00 0.00 0.00 86 1017.4
20260831034305 78 237 5.0 12.0 0.00 0.00 0.00 86 1017.5
20260831032806 78 240 7.0 12.0 0.00 0.00 0.00 86 1017.6
20260831032306 78 239 6.0 12.0 0.00 0.00 0.00 86 1017.6
20260831031805 78 231 6.0 14.0 0.00 0.00 0.00 86 1017.6
20260831031306 78 232 7.0 14.0 0.00 0.00 0.00 86 1017.6
20260831030805 78 232 6.0 15.0 0.00 0.00 0.00 86 1017.5
20260831030305 78 238 7.0 13.0 0.00 0.00 0.00 86 1017.5
20260831025805 78 237 8.0 14.0 0.00 0.00 0.00 86 1017.6
20260831024305 78 235 6.0 13.0 0.00 0.00 0.00 85 1017.5
20260831023305 78 233 6.0 12.0 0.00 0.00 0.00 85 1017.8
20260831022306 78 257 7.0 15.0 0.00 0.00 0.00 84 1018.0
20260831021305 78 234 10.0 16.0 0.00 0.00 0.00 84 1018.1
20260831015805 78 235 7.0 16.0 0.00 0.00 0.00 84 1018.3
20260831014805 78 230 8.0 14.0 0.00 0.00 0.00 84 1018.1
20260831013805 78 228 11.0 16.0 0.00 0.00 0.00 84 1018.1
20260831013305 78 237 7.0 15.0 0.00 0.00 0.00 84 1018.0
20260831012805 78 227 6.0 15.0 0.00 0.00 0.00 84 1018.0
20260831011805 78 235 9.0 20.0 0.00 0.00 0.00 84 1018.1
20260831005306 78 232 10.0 21.0 0.00 0.00 0.00 83 1018.2
20260831003805 78 235 6.0 14.0 0.00 0.00 0.00 83 1018.1
20260831003304 78 237 9.0 13.0 0.00 0.00 0.00 83 1018.1
20260831002306 78 233 9.0 16.0 0.00 0.00 0.00 83 1017.9
20260830235804 78 231 11.0 18.0 0.00 0.00 0.00 82 1017.8
20260830235306 78 227 7.0 16.0 0.00 0.00 0.00 82 1017.7
20260830234304 78 228 7.0 17.0 0.00 0.00 0.00 82 1017.6
20260830233805 78 233 9.0 16.0 0.00 0.00 0.00 82 1017.6
20260830233305 78 232 7.0 14.0 0.00 0.00 0.00 82 1017.6
20260830232306 78 238 7.0 16.0 0.00 0.00 0.00 82 1017.6
20260830231304 78 223 10.0 16.0 0.00 0.00 0.00 82 1017.7
20260830230805 78 231 6.0 13.0 0.00 0.00 0.00 82 1017.7
20260830230304 78 224 6.0 15.0 0.00 0.00 0.00 82 1017.8
20260830224804 79 221 8.0 15.0 0.00 0.00 0.00 81 1017.7
20260830223804 79 228 7.0 15.0 0.00 0.00 0.00 80 1017.6
20260830222306 79 223 8.0 16.0 0.00 0.00 0.00 80 1017.6
20260830221805 79 215 7.0 14.0 0.00 0.00 0.00 80 1017.6
20260830220805 78 225 8.0 16.0 0.00 0.00 0.00 81 1017.5
20260830213805 79 213 9.0 15.0 0.00 0.00 0.00 79 1017.7
20260830211805 79 230 9.0 16.0 0.00 0.00 0.00 78 1017.7
20260830210804 80 230 6.0 20.0 0.00 0.00 0.00 77 1017.7
20260830205306 81 223 9.0 18.0 0.00 0.00 0.00 76 1017.7
20260830203304 81 219 11.0 20.0 0.00 0.00 0.00 75 1017.9
20260830202306 81 220 12.0 21.0 0.00 0.00 0.00 75 1017.9
20260830201305 81 212 11.0 21.0 0.00 0.00 0.00 75 1017.8
20260830200804 81 211 12.0 18.0 0.00 0.00 0.00 74 1018.0
20260830194804 81 217 11.0 17.0 0.00 0.00 0.00 74 1018.3
20260830193304 82 228 5.0 20.0 0.00 0.00 0.00 74 1018.4
20260830191305 81 217 11.0 20.0 0.00 0.00 0.00 74 1018.6
20260830185805 81 220 10.0 20.0 0.00 0.00 0.00 74 1018.7
20260830185306 81 208 10.0 18.0 0.00 0.00 0.00 72 1018.8
20260830184304 81 206 10.0 18.0 0.00 0.00 0.00 72 1018.9
20260830183804 82 214 8.0 18.0 0.00 0.00 0.00 72 1018.9
20260830183304 81 209 10.0 18.0 0.00 0.00 0.00 72 1019.0
20260830182804 81 211 12.0 21.0 0.00 0.00 0.00 72 1019.1
20260830182306 81 209 10.0 20.0 0.00 0.00 0.00 72 1019.1
20260830181804 81 218 10.0 17.0 0.00 0.00 0.00 72 1019.3
20260830181304 82 210 8.0 14.0 0.00 0.00 0.00 72 1019.4
20260830180805 81 221 9.0 20.0 0.00 0.00 0.00 72 1019.5
20260830174805 81 209 10.0 20.0 0.00 0.00 0.00 71 1019.8
20260830174304 81 218 10.0 21.0 0.00 0.00 0.00 71 1019.8
20260830172804 81 209 12.0 18.0 0.00 0.00 0.00 71 1019.8
20260830170804 81 209 9.0 17.0 0.00 0.00 0.00 71 1020.3
20260830170305 81 232 10.0 16.0 0.00 0.00 0.00 71 1020.5
20260830165804 81 213 10.0 16.0 0.00 0.00 0.00 71 1020.6
20260830165306 81 217 9.0 14.0 0.00 0.00 0.00 71 1020.5
20260830163805 81 213 10.0 17.0 0.00 0.00 0.00 70 1020.4
20260830162804 81 222 9.0 16.0 0.00 0.00 0.00 71 1020.5
20260830162306 80 210 8.0 17.0 0.00 0.00 0.00 70 1020.5
20260830161804 81 209 7.0 15.0 0.00 0.00 0.00 70 1020.4
20260830160305 81 220 6.0 15.0 0.00 0.00 0.00 69 1020.5
20260830155306 80 211 6.0 16.0 0.00 0.00 0.00 70 1020.6
20260830153804 80 203 8.0 16.0 0.00 0.00 0.00 69 1020.5
20260830152803 80 211 7.0 15.0 0.00 0.00 0.00 69 1020.6
20260830152306 80 226 7.0 14.0 0.00 0.00 0.00 69 1020.6
20260830151804 80 214 7.0 15.0 0.00 0.00 0.00 70 1020.7
20260830151304 80 202 9.0 15.0 0.00 0.00 0.00 69 1020.8
20260830145306 80 231 5.0 12.0 0.00 0.00 0.00 71 1021.0
20260830144304 79 229 6.0 12.0 0.00 0.00 0.00 71 1021.0
20260830142804 79 249 5.0 10.0 0.00 0.00 0.00 72 1021.3
20260830142306 78 243 4.0 10.0 0.00 0.00 0.00 73 1021.4
20260830141304 79 252 3.0 9.0 0.00 0.00 0.00 74 1021.4
20260830140804 79 245 3.0 10.0 0.00 0.00 0.00 74 1021.4
20260830140304 78 251 2.0 7.0 0.00 0.00 0.00 75 1021.5
20260830134804 78 232 3.0 12.0 0.00 0.00 0.00 73 1021.5
20260830131804 76 221 5.0 10.0 0.00 0.00 0.00 77 1021.9
20260830131304 76 215 4.0 9.0 0.00 0.00 0.00 77 1021.9
20260830130305 76 225 4.0 7.0 0.00 0.00 0.00 78 1022.0
20260830125306 76 222 3.0 7.0 0.00 0.00 0.00 78 1022.1
20260830123304 75 227 3.0 6.0 0.00 0.00 0.00 80 1022.1
20260830122804 75 235 2.0 5.0 0.00 0.00 0.00 80 1022.2
20260830121804 74 240 2.0 5.0 0.00 0.00 0.00 80 1022.1
20260830120804 73 237 2.0 3.0 0.00 0.00 0.00 81 1022.3
20260830120304 73 271 0.0 2.0 0.00 0.00 0.00 82 1022.3
20260830115804 72 271 1.0 3.0 0.00 0.00 0.00 82 1022.3
20260830114304 71 271 0.0 2.0 0.00 0.00 0.00 83 1022.3
20260830113804 71 271 1.0 2.0 0.00 0.00 0.00 83 1022.3
20260830112306 71 273 1.0 3.0 0.00 0.00 0.00 83 1022.2
20260830111304 71 259 1.0 3.0 0.00 0.00 0.00 83 1022.3
20260830105306 71 254 2.0 3.0 0.00 0.00 0.00 83 1022.2
20260830102804 70 239 3.0 5.0 0.00 0.00 0.00 84 1022.1
20260830102306 70 240 2.0 3.0 0.00 0.00 0.00 84 1022.0
20260830101804 69 246 2.0 3.0 0.00 0.00 0.00 84 1022.0
20260830100804 69 247 2.0 5.0 0.00 0.00 0.00 84 1021.9
20260830095306 70 240 2.0 3.0 0.00 0.00 0.00 85 1022.0